Time,TemperatureF,DewpointF,PressureIn,WindDirection,WindDirectionDegrees,WindSpeedMPH,WindSpeedGustMPH,Humidity,HourlyPrecipIn,Conditions,Clouds,dailyrainin,SoftwareType,DateUTC
2013-01-12 00:00:00,22.8,18.1,30.34,SSE,167,0.0,0.0,82,0.00,,,0.03,meteohub,2013-01-12 08:00:00,
2013-01-12 00:05:00,22.8,18.1,30.33,SSE,167,0.0,0.0,82,0.00,,,0.00,meteohub,2013-01-12 08:05:00,
2013-01-12 00:10:00,22.8,18.1,30.33,SSE,167,0.0,0.0,82,0.00,,,0.00,meteohub,2013-01-12 08:10:00,
2013-01-12 00:15:00,22.8,18.1,30.33,SSE,167,0.0,0.0,82,0.00,,,0.00,meteohub,2013-01-12 08:15:00,
2013-01-12 00:20:00,22.8,18.0,30.33,SSE,167,0.0,0.0,81,0.00,,,0.00,meteohub,2013-01-12 08:20:00,
2013-01-12 00:25:00,22.8,18.0,30.33,SSE,167,0.0,0.0,81,0.00,,,0.00,meteohub,2013-01-12 08:25:00,
2013-01-12 00:30:00,22.8,18.0,30.34,SSE,167,0.0,0.0,81,0.00,,,0.00,meteohub,2013-01-12 08:30:00,
2013-01-12 00:35:00,22.8,18.0,30.34,SSE,167,0.0,0.0,81,0.00,,,0.00,meteohub,2013-01-12 08:35:00,
2013-01-12 00:40:00,22.8,18.0,30.34,SSE,167,0.0,0.0,81,0.00,,,0.00,meteohub,2013-01-12 08:40:00,
2013-01-12 00:45:00,22.8,18.1,30.34,SSE,167,0.0,0.0,82,0.00,,,0.00,meteohub,2013-01-12 08:45:00,
2013-01-12 00:50:00,22.6,18.0,30.34,SSE,167,0.0,0.0,82,0.00,,,0.00,meteohub,2013-01-12 08:50:00,
2013-01-12 00:55:00,22.6,18.0,30.34,SSE,167,0.0,0.0,82,0.00,,,0.00,meteohub,2013-01-12 08:55:00,
2013-01-12 01:00:00,22.5,17.8,30.34,SSE,167,0.0,0.0,82,0.00,,,0.00,meteohub,2013-01-12 09:00:00,
2013-01-12 01:05:00,22.5,17.8,30.34,SSE,167,0.0,0.0,82,0.00,,,0.00,meteohub,2013-01-12 09:05:00,
2013-01-12 01:10:00,22.3,17.6,30.34,SSE,167,0.0,0.0,82,0.00,,,0.00,meteohub,2013-01-12 09:10:00,
2013-01-12 01:15:00,22.3,17.6,30.34,SSE,167,0.0,0.0,82,0.00,,,0.00,meteohub,2013-01-12 09:15:00,
2013-01-12 01:20:00,22.3,17.6,30.34,SSE,167,0.0,0.0,82,0.00,,,0.00,meteohub,2013-01-12 09:20:00,
2013-01-12 01:25:00,22.3,17.6,30.34,SSE,167,0.0,0.0,82,0.00,,,0.00,meteohub,2013-01-12 09:25:00,
2013-01-12 01:30:00,22.3,17.6,30.34,SSE,167,0.0,0.0,82,0.00,,,0.00,meteohub,2013-01-12 09:30:00,
2013-01-12 01:35:00,22.3,17.6,30.34,SSE,167,0.0,0.0,82,0.00,,,0.00,meteohub,2013-01-12 09:35:00,
2013-01-12 01:40:00,22.3,17.6,30.34,SSE,167,0.0,0.0,82,0.00,,,0.00,meteohub,2013-01-12 09:40:00,
2013-01-12 01:45:00,22.3,17.6,30.34,SSE,167,0.0,0.0,82,0.00,,,0.00,meteohub,2013-01-12 09:45:00,
2013-01-12 01:47:00,22.3,17.6,30.34,SSE,167,0.0,0.0,82,0.00,,,0.00,meteohub,2013-01-12 09:47:00,
2013-01-12 01:52:00,22.1,17.4,30.34,SSE,167,0.0,0.0,82,0.00,,,0.00,meteohub,2013-01-12 09:52:00,
2013-01-12 01:57:00,22.3,17.6,30.34,SSE,167,0.0,0.0,82,0.00,,,0.00,meteohub,2013-01-12 09:57:00,
2013-01-12 02:02:00,22.3,17.4,30.34,SSE,167,0.0,0.0,81,0.00,,,0.00,meteohub,2013-01-12 10:02:00,
2013-01-12 02:07:00,22.3,17.4,30.34,SSE,167,0.0,0.0,81,0.00,,,0.00,meteohub,2013-01-12 10:07:00,
2013-01-12 02:12:00,22.5,17.6,30.34,SSE,167,0.0,0.0,81,0.00,,,0.00,meteohub,2013-01-12 10:12:00,
2013-01-12 02:17:00,22.5,17.6,30.34,SSE,167,0.0,0.0,81,0.00,,,0.00,meteohub,2013-01-12 10:17:00,
2013-01-12 02:22:00,22.6,17.8,30.34,SSE,167,0.0,0.0,81,0.00,,,0.00,meteohub,2013-01-12 10:22:00,
2013-01-12 02:27:00,22.6,17.8,30.35,SSE,167,0.0,0.0,81,0.00,,,0.00,meteohub,2013-01-12 10:27:00,
2013-01-12 02:32:00,22.6,17.8,30.35,SSE,167,0.0,0.0,81,0.00,,,0.00,meteohub,2013-01-12 10:32:00,
2013-01-12 02:37:00,22.5,17.6,30.35,SSE,167,0.0,0.0,81,0.00,,,0.00,meteohub,2013-01-12 10:37:00,
2013-01-12 02:42:00,22.5,17.6,30.35,SSE,167,0.0,0.0,81,0.00,,,0.00,meteohub,2013-01-12 10:42:00,
2013-01-12 02:47:00,22.5,17.8,30.35,SSE,167,0.0,0.0,82,0.00,,,0.00,meteohub,2013-01-12 10:47:00,
2013-01-12 02:52:00,22.6,17.8,30.35,SSE,167,0.0,0.0,81,0.00,,,0.00,meteohub,2013-01-12 10:52:00,
2013-01-12 02:57:00,22.6,17.8,30.35,SSE,167,0.0,0.0,81,0.00,,,0.00,meteohub,2013-01-12 10:57:00,
2013-01-12 03:02:00,22.6,17.8,30.35,SSE,167,0.0,0.0,81,0.00,,,0.00,meteohub,2013-01-12 11:02:00,
2013-01-12 03:07:00,22.5,17.8,30.35,SSE,167,0.0,0.0,82,0.00,,,0.00,meteohub,2013-01-12 11:07:00,
2013-01-12 03:12:00,22.3,17.6,30.35,SSE,167,0.0,0.0,82,0.00,,,0.00,meteohub,2013-01-12 11:12:00,
2013-01-12 03:17:00,22.3,18.0,30.35,SSE,167,0.0,0.0,83,0.00,,,0.00,meteohub,2013-01-12 11:17:00,
2013-01-12 03:22:00,21.7,17.4,30.35,SSE,167,0.0,0.0,83,0.00,,,0.00,meteohub,2013-01-12 11:22:00,
2013-01-12 03:27:00,21.6,17.4,30.35,SSE,167,0.0,0.0,84,0.00,,,0.00,meteohub,2013-01-12 11:27:00,
2013-01-12 03:32:00,21.4,17.2,30.35,SSE,167,0.0,0.0,84,0.00,,,0.00,meteohub,2013-01-12 11:32:00,
2013-01-12 03:37:00,21.2,17.1,30.35,SSE,167,0.0,0.0,84,0.00,,,0.00,meteohub,2013-01-12 11:37:00,
2013-01-12 03:42:00,21.0,16.9,30.35,SSE,167,0.0,0.0,84,0.00,,,0.00,meteohub,2013-01-12 11:42:00,
2013-01-12 03:47:00,21.0,16.9,30.35,SSE,167,0.0,0.0,84,0.00,,,0.00,meteohub,2013-01-12 11:47:00,
2013-01-12 03:52:00,20.8,16.7,30.35,SSE,167,0.0,0.0,84,0.00,,,0.00,meteohub,2013-01-12 11:52:00,
2013-01-12 03:57:00,20.8,16.7,30.35,SSE,167,0.0,0.0,84,0.00,,,0.00,meteohub,2013-01-12 11:57:00,
2013-01-12 04:02:00,20.8,16.7,30.35,SSE,167,0.0,0.0,84,0.00,,,0.00,meteohub,2013-01-12 12:02:00,
2013-01-12 04:07:00,20.8,16.5,30.35,SSE,167,0.0,0.0,83,0.00,,,0.00,meteohub,2013-01-12 12:07:00,
2013-01-12 04:12:00,20.8,16.5,30.35,SSE,167,0.0,0.0,83,0.00,,,0.00,meteohub,2013-01-12 12:12:00,
2013-01-12 04:17:00,20.8,16.5,30.35,SSE,167,0.0,0.0,83,0.00,,,0.00,meteohub,2013-01-12 12:17:00,
2013-01-12 04:22:00,21.0,16.3,30.35,SSE,167,0.0,0.0,82,0.00,,,0.00,meteohub,2013-01-12 12:22:00,
2013-01-12 04:27:00,21.0,16.3,30.36,SSE,167,0.0,0.0,82,0.00,,,0.00,meteohub,2013-01-12 12:27:00,
2013-01-12 04:32:00,21.0,16.7,30.36,SSE,167,0.0,0.0,83,0.00,,,0.00,meteohub,2013-01-12 12:32:00,
2013-01-12 04:37:00,21.0,16.7,30.36,SSE,167,0.0,0.0,83,0.00,,,0.00,meteohub,2013-01-12 12:37:00,
2013-01-12 04:42:00,21.0,16.3,30.36,SSE,167,0.0,0.0,82,0.00,,,0.00,meteohub,2013-01-12 12:42:00,
2013-01-12 04:47:00,21.0,16.3,30.36,SSE,167,0.0,0.0,82,0.00,,,0.00,meteohub,2013-01-12 12:47:00,
2013-01-12 04:52:00,21.2,16.5,30.36,SSE,167,0.0,0.0,82,0.00,,,0.00,meteohub,2013-01-12 12:52:00,
2013-01-12 04:57:00,21.2,16.5,30.36,SSE,167,0.0,0.0,82,0.00,,,0.00,meteohub,2013-01-12 12:57:00,
2013-01-12 05:02:00,21.2,16.9,30.36,SSE,167,0.0,0.0,83,0.00,,,0.00,meteohub,2013-01-12 13:02:00,
2013-01-12 05:07:00,21.0,16.7,30.36,SSE,167,0.0,0.0,83,0.00,,,0.00,meteohub,2013-01-12 13:07:00,
2013-01-12 05:12:00,21.0,16.7,30.36,SSE,167,0.0,0.0,83,0.00,,,0.00,meteohub,2013-01-12 13:12:00,
2013-01-12 05:17:00,20.8,16.5,30.36,SSE,167,0.0,0.0,83,0.00,,,0.00,meteohub,2013-01-12 13:17:00,
2013-01-12 05:22:00,20.8,16.5,30.36,SSE,167,0.0,0.0,83,0.00,,,0.00,meteohub,2013-01-12 13:22:00,
2013-01-12 05:27:00,20.8,16.5,30.36,SSE,167,0.0,0.0,83,0.00,,,0.00,meteohub,2013-01-12 13:27:00,
2013-01-12 05:32:00,20.8,16.5,30.36,SSE,167,0.0,0.0,83,0.00,,,0.00,meteohub,2013-01-12 13:32:00,
2013-01-12 05:37:00,20.8,16.5,30.35,SSE,167,0.0,0.0,83,0.00,,,0.00,meteohub,2013-01-12 13:37:00,
2013-01-12 05:42:00,20.8,16.5,30.35,SSE,167,0.0,0.0,83,0.00,,,0.00,meteohub,2013-01-12 13:42:00,
2013-01-12 05:47:00,20.8,16.5,30.35,SSE,167,0.0,0.0,83,0.00,,,0.00,meteohub,2013-01-12 13:47:00,
2013-01-12 05:52:00,20.7,16.3,30.35,SSE,167,0.0,0.0,83,0.00,,,0.00,meteohub,2013-01-12 13:52:00,
2013-01-12 05:57:00,20.5,16.3,30.35,SSE,167,0.0,0.0,84,0.00,,,0.00,meteohub,2013-01-12 13:57:00,
2013-01-12 06:02:00,20.5,16.2,30.35,SSE,167,0.0,0.0,83,0.00,,,0.00,meteohub,2013-01-12 14:02:00,
2013-01-12 06:07:00,20.5,16.2,30.35,SSE,167,0.0,0.0,83,0.00,,,0.00,meteohub,2013-01-12 14:07:00,
2013-01-12 06:12:00,20.5,16.2,30.36,SSE,167,0.0,0.0,83,0.00,,,0.00,meteohub,2013-01-12 14:12:00,
2013-01-12 06:17:00,20.3,16.2,30.36,SSE,167,0.0,0.0,84,0.00,,,0.00,meteohub,2013-01-12 14:17:00,
2013-01-12 06:22:00,20.3,16.2,30.36,SSE,167,0.0,0.0,84,0.00,,,0.00,meteohub,2013-01-12 14:22:00,
2013-01-12 06:27:00,20.3,16.2,30.36,SSE,167,0.0,0.0,84,0.00,,,0.00,meteohub,2013-01-12 14:27:00,
2013-01-12 06:32:00,20.5,16.2,30.36,SSE,167,0.0,0.0,83,0.00,,,0.00,meteohub,2013-01-12 14:32:00,
2013-01-12 06:37:00,20.5,16.2,30.36,SSE,167,0.0,0.0,83,0.00,,,0.00,meteohub,2013-01-12 14:37:00,
2013-01-12 06:42:00,20.7,16.3,30.36,SSE,167,0.0,0.0,83,0.00,,,0.00,meteohub,2013-01-12 14:42:00,
2013-01-12 06:47:00,20.7,16.0,30.36,SSE,167,0.0,0.0,82,0.00,,,0.00,meteohub,2013-01-12 14:47:00,
2013-01-12 06:52:00,20.8,16.2,30.36,SSE,167,0.0,0.0,82,0.00,,,0.00,meteohub,2013-01-12 14:52:00,
2013-01-12 06:57:00,21.0,16.3,30.36,SSE,167,0.0,0.0,82,0.00,,,0.00,meteohub,2013-01-12 14:57:00,
2013-01-12 07:02:00,21.0,16.3,30.37,SSE,167,0.0,0.0,82,0.00,,,0.00,meteohub,2013-01-12 15:02:00,
2013-01-12 07:07:00,21.4,16.7,30.37,SSE,167,0.0,0.0,82,0.00,,,0.00,meteohub,2013-01-12 15:07:00,
2013-01-12 07:12:00,21.6,16.7,30.37,SSE,167,0.0,0.0,81,0.00,,,0.00,meteohub,2013-01-12 15:12:00,
2013-01-12 07:17:00,21.7,16.9,30.37,SSE,167,0.0,0.0,81,0.00,,,0.00,meteohub,2013-01-12 15:17:00,
2013-01-12 07:22:00,21.7,16.9,30.38,SSE,167,0.0,0.0,81,0.00,,,0.00,meteohub,2013-01-12 15:22:00,
2013-01-12 07:27:00,21.7,16.9,30.38,SSE,167,0.0,0.0,81,0.00,,,0.00,meteohub,2013-01-12 15:27:00,
2013-01-12 07:32:00,21.7,16.9,30.38,SSE,167,0.0,0.0,81,0.00,,,0.00,meteohub,2013-01-12 15:32:00,
2013-01-12 07:37:00,21.9,17.1,30.38,SSE,167,0.0,0.0,81,0.00,,,0.00,meteohub,2013-01-12 15:37:00,
2013-01-12 07:42:00,22.1,17.2,30.38,SSE,167,0.0,0.0,81,0.00,,,0.00,meteohub,2013-01-12 15:42:00,
2013-01-12 07:47:00,22.3,17.4,30.38,SSE,167,0.0,0.0,81,0.00,,,0.00,meteohub,2013-01-12 15:47:00,
2013-01-12 07:53:00,22.5,17.2,30.38,SSE,167,0.0,0.0,80,0.00,,,0.00,meteohub,2013-01-12 15:53:00,
2013-01-12 07:58:00,22.5,17.2,30.38,SSE,167,0.0,0.0,80,0.00,,,0.00,meteohub,2013-01-12 15:58:00,
2013-01-12 08:03:00,22.6,17.8,30.38,SSE,167,0.0,0.0,81,0.00,,,0.00,meteohub,2013-01-12 16:03:00,
2013-01-12 08:08:00,22.6,17.8,30.38,SSE,167,0.0,0.0,81,0.00,,,0.00,meteohub,2013-01-12 16:08:00,
2013-01-12 08:13:00,22.8,18.0,30.39,SSE,167,0.0,0.0,81,0.00,,,0.00,meteohub,2013-01-12 16:13:00,
2013-01-12 08:18:00,22.8,18.0,30.39,SSE,167,0.0,0.0,81,0.00,,,0.00,meteohub,2013-01-12 16:18:00,
2013-01-12 08:23:00,23.0,18.0,30.39,SSE,167,0.0,0.0,81,0.00,,,0.00,meteohub,2013-01-12 16:23:00,
2013-01-12 08:28:00,23.2,18.0,30.39,SSE,167,0.0,0.0,80,0.00,,,0.00,meteohub,2013-01-12 16:28:00,
2013-01-12 08:33:00,23.4,18.1,30.40,SSE,167,0.0,0.0,80,0.00,,,0.00,meteohub,2013-01-12 16:33:00,
2013-01-12 08:38:00,23.5,18.3,30.40,SSE,167,0.0,0.0,80,0.00,,,0.00,meteohub,2013-01-12 16:38:00,
2013-01-12 08:43:00,23.7,18.5,30.40,SSE,167,0.0,0.0,80,0.00,,,0.00,meteohub,2013-01-12 16:43:00,
2013-01-12 08:48:00,24.1,18.9,30.40,SSE,167,0.0,0.0,80,0.00,,,0.00,meteohub,2013-01-12 16:48:00,
2013-01-12 08:53:00,24.1,18.9,30.40,SSE,167,0.0,0.0,80,0.00,,,0.00,meteohub,2013-01-12 16:53:00,
2013-01-12 08:58:00,24.4,19.2,30.40,SSE,167,0.0,0.0,80,0.00,,,0.00,meteohub,2013-01-12 16:58:00,
2013-01-12 09:03:00,24.6,19.4,30.40,SSE,167,0.0,0.0,80,0.00,,,0.00,meteohub,2013-01-12 17:03:00,
2013-01-12 09:08:00,25.0,19.8,30.40,SSE,167,0.0,0.0,80,0.00,,,0.00,meteohub,2013-01-12 17:08:00,
2013-01-12 09:13:00,25.2,19.9,30.40,SSE,167,0.0,0.0,80,0.00,,,0.00,meteohub,2013-01-12 17:13:00,
2013-01-12 09:18:00,25.3,20.1,30.40,SSE,167,0.0,0.0,80,0.00,,,0.00,meteohub,2013-01-12 17:18:00,
2013-01-12 09:23:00,25.5,20.3,30.40,SSE,167,0.0,0.0,80,0.00,,,0.00,meteohub,2013-01-12 17:23:00,
2013-01-12 09:28:00,25.7,20.5,30.40,SSE,167,0.0,0.0,80,0.00,,,0.00,meteohub,2013-01-12 17:28:00,
2013-01-12 09:33:00,25.9,20.5,30.40,SSE,167,0.0,0.0,80,0.00,,,0.00,meteohub,2013-01-12 17:33:00,
2013-01-12 09:38:00,25.9,20.5,30.40,SSE,167,0.0,0.0,80,0.00,,,0.00,meteohub,2013-01-12 17:38:00,
2013-01-12 09:43:00,25.9,20.8,30.40,SSE,167,0.0,0.0,81,0.00,,,0.00,meteohub,2013-01-12 17:43:00,
2013-01-12 09:48:00,26.1,20.7,30.40,SSE,167,0.0,0.0,80,0.00,,,0.00,meteohub,2013-01-12 17:48:00,
2013-01-12 09:53:00,26.2,20.8,30.40,SSE,167,0.0,0.0,80,0.00,,,0.00,meteohub,2013-01-12 17:53:00,
2013-01-12 09:58:00,26.4,21.0,30.41,SSE,167,0.0,0.0,80,0.00,,,0.00,meteohub,2013-01-12 17:58:00,
2013-01-12 10:03:00,26.8,21.4,30.40,SSE,167,0.0,0.0,80,0.00,,,0.00,meteohub,2013-01-12 18:03:00,
2013-01-12 10:08:00,27.0,21.9,30.40,SSE,167,0.0,0.0,81,0.00,,,0.00,meteohub,2013-01-12 18:08:00,
2013-01-12 10:13:00,27.1,22.1,30.40,SSE,167,0.0,0.0,81,0.00,,,0.00,meteohub,2013-01-12 18:13:00,
2013-01-12 10:18:00,27.3,22.3,30.41,SSE,167,0.0,0.0,81,0.00,,,0.00,meteohub,2013-01-12 18:18:00,
2013-01-12 10:23:00,27.9,22.8,30.41,SSE,167,0.0,0.0,81,0.00,,,0.00,meteohub,2013-01-12 18:23:00,
2013-01-12 10:28:00,28.0,23.2,30.41,SSE,167,0.0,0.0,82,0.00,,,0.00,meteohub,2013-01-12 18:28:00,
2013-01-12 10:33:00,28.6,23.7,30.41,SSE,167,0.0,0.0,82,0.00,,,0.00,meteohub,2013-01-12 18:33:00,
2013-01-12 10:38:00,28.8,24.3,30.41,SSE,167,0.0,0.0,83,0.00,,,0.00,meteohub,2013-01-12 18:38:00,
2013-01-12 10:43:00,29.1,24.6,30.41,SSE,167,0.0,0.0,83,0.00,,,0.00,meteohub,2013-01-12 18:43:00,
2013-01-12 10:48:00,29.7,25.3,30.41,SSE,167,0.0,0.0,84,0.00,,,0.00,meteohub,2013-01-12 18:48:00,
2013-01-12 10:53:00,29.7,26.1,30.41,SSE,167,0.0,1.0,86,0.00,,,0.00,meteohub,2013-01-12 18:53:00,
2013-01-12 10:58:00,29.7,26.2,30.41,SSE,167,0.0,2.0,87,0.00,,,0.00,meteohub,2013-01-12 18:58:00,
2013-01-12 11:03:00,29.8,26.2,30.41,SSW,195,2.0,2.0,86,0.00,,,0.00,meteohub,2013-01-12 19:03:00,
2013-01-12 11:08:00,30.4,27.0,30.41,SSW,212,0.0,3.0,87,0.00,,,0.00,meteohub,2013-01-12 19:08:00,
2013-01-12 11:13:00,30.7,27.1,30.40,SW,229,1.0,3.0,86,0.00,,,0.00,meteohub,2013-01-12 19:13:00,
2013-01-12 11:18:00,31.1,27.3,30.40,West,264,0.0,3.0,86,0.00,,,0.00,meteohub,2013-01-12 19:18:00,
2013-01-12 11:23:00,31.5,27.7,30.40,SW,229,0.0,4.0,86,0.00,,,0.00,meteohub,2013-01-12 19:23:00,
2013-01-12 11:28:00,32.0,28.2,30.40,SW,229,0.0,4.0,86,0.00,,,0.00,meteohub,2013-01-12 19:28:00,
2013-01-12 11:33:00,32.4,28.4,30.40,SW,223,0.0,3.0,85,0.00,,,0.00,meteohub,2013-01-12 19:33:00,
2013-01-12 11:38:00,32.4,27.5,30.40,SW,217,0.0,3.0,82,0.00,,,0.00,meteohub,2013-01-12 19:38:00,
2013-01-12 11:43:00,32.5,27.3,30.40,SSE,153,0.0,3.0,81,0.00,,,0.00,meteohub,2013-01-12 19:43:00,
2013-01-12 11:48:00,32.7,28.2,30.40,SSE,159,1.0,3.0,83,0.00,,,0.00,meteohub,2013-01-12 19:48:00,
2013-01-12 11:53:00,33.1,27.9,30.40,South,182,0.0,3.0,81,0.00,,,0.00,meteohub,2013-01-12 19:53:00,
2013-01-12 11:58:00,33.4,27.9,30.40,SSW,193,0.0,4.0,80,0.00,,,0.00,meteohub,2013-01-12 19:58:00,
2013-01-12 12:03:00,33.4,27.3,30.40,SE,131,0.0,5.0,78,0.00,,,0.00,meteohub,2013-01-12 20:03:00,
2013-01-12 12:08:00,33.6,28.0,30.39,South,190,0.0,5.0,80,0.00,,,0.00,meteohub,2013-01-12 20:08:00,
2013-01-12 12:13:00,34.2,28.6,30.39,South,190,1.0,5.0,80,0.00,,,0.00,meteohub,2013-01-12 20:13:00,
2013-01-12 12:18:00,34.3,28.2,30.40,South,187,2.0,3.0,78,0.00,,,0.00,meteohub,2013-01-12 20:18:00,
2013-01-12 12:23:00,34.5,28.4,30.40,SSE,162,1.0,3.0,78,0.00,,,0.00,meteohub,2013-01-12 20:23:00,
2013-01-12 12:28:00,34.7,27.7,30.39,NW,317,2.0,3.0,75,0.00,,,0.00,meteohub,2013-01-12 20:28:00,
2013-01-12 12:33:00,34.9,27.7,30.39,NNE,19,0.0,3.0,75,0.00,,,0.00,meteohub,2013-01-12 20:33:00,
2013-01-12 12:38:00,35.1,27.7,30.39,SE,124,0.0,4.0,74,0.00,,,0.00,meteohub,2013-01-12 20:38:00,
2013-01-12 12:43:00,34.9,27.7,30.39,South,180,0.0,4.0,75,0.00,,,0.00,meteohub,2013-01-12 20:43:00,
2013-01-12 12:48:00,34.9,27.5,30.39,South,188,1.0,4.0,74,0.00,,,0.00,meteohub,2013-01-12 20:48:00,
2013-01-12 12:53:00,35.2,27.9,30.39,NW,312,0.0,4.0,74,0.00,,,0.00,meteohub,2013-01-12 20:53:00,
2013-01-12 12:59:00,35.4,27.7,30.39,SE,139,0.0,5.0,73,0.00,,,0.00,meteohub,2013-01-12 20:59:00,
2013-01-12 13:04:00,35.8,27.7,30.39,NNE,30,0.0,5.0,72,0.00,,,0.00,meteohub,2013-01-12 21:04:00,
2013-01-12 13:09:00,35.8,27.7,30.39,ESE,120,1.0,6.0,72,0.00,,,0.00,meteohub,2013-01-12 21:09:00,
2013-01-12 13:14:00,35.6,27.5,30.39,NE,44,0.0,6.0,72,0.00,,,0.00,meteohub,2013-01-12 21:14:00,
2013-01-12 13:19:00,35.2,26.8,30.39,ENE,59,0.0,6.0,71,0.00,,,0.00,meteohub,2013-01-12 21:19:00,
2013-01-12 13:24:00,34.7,26.6,30.39,NE,55,0.0,4.0,72,0.00,,,0.00,meteohub,2013-01-12 21:24:00,
2013-01-12 13:29:00,34.3,26.6,30.39,ENE,66,0.0,3.0,73,0.00,,,0.00,meteohub,2013-01-12 21:29:00,
2013-01-12 13:34:00,34.3,26.6,30.40,ENE,64,0.0,3.0,73,0.00,,,0.00,meteohub,2013-01-12 21:34:00,
2013-01-12 13:39:00,34.9,26.8,30.40,West,281,0.0,3.0,72,0.00,,,0.00,meteohub,2013-01-12 21:39:00,
2013-01-12 13:44:00,34.5,26.4,30.40,NW,315,0.0,3.0,72,0.00,,,0.00,meteohub,2013-01-12 21:44:00,
2013-01-12 13:49:00,34.5,26.8,30.40,WSW,252,1.0,7.0,73,0.00,,,0.00,meteohub,2013-01-12 21:49:00,
2013-01-12 13:54:00,35.2,27.9,30.40,West,281,3.0,7.0,74,0.00,,,0.00,meteohub,2013-01-12 21:54:00,
2013-01-12 13:59:00,36.1,28.0,30.41,WNW,292,0.0,5.0,72,0.00,,,0.00,meteohub,2013-01-12 21:59:00,
2013-01-12 14:04:00,36.7,27.9,30.41,NW,311,0.0,3.0,70,0.00,,,0.00,meteohub,2013-01-12 22:04:00,
2013-01-12 14:09:00,37.0,27.9,30.41,West,264,3.0,3.0,69,0.00,,,0.00,meteohub,2013-01-12 22:09:00,
2013-01-12 14:14:00,36.7,26.8,30.41,NW,312,6.0,6.0,67,0.00,,,0.00,meteohub,2013-01-12 22:14:00,
2013-01-12 14:19:00,35.6,26.1,30.41,NNW,331,0.0,8.0,68,0.00,,,0.00,meteohub,2013-01-12 22:19:00,
2013-01-12 14:24:00,35.1,25.9,30.41,SSW,211,0.0,8.0,69,0.00,,,0.00,meteohub,2013-01-12 22:24:00,
2013-01-12 14:29:00,35.1,26.6,30.41,SW,234,1.0,8.0,71,0.00,,,0.00,meteohub,2013-01-12 22:29:00,
2013-01-12 14:34:00,35.6,26.8,30.40,SE,136,0.0,5.0,70,0.00,,,0.00,meteohub,2013-01-12 22:34:00,
2013-01-12 14:39:00,35.8,27.0,30.40,SE,128,0.0,3.0,70,0.00,,,0.00,meteohub,2013-01-12 22:39:00,
2013-01-12 14:44:00,36.0,26.8,30.40,NNE,26,0.0,3.0,69,0.00,,,0.00,meteohub,2013-01-12 22:44:00,
2013-01-12 14:49:00,36.1,27.0,30.40,NNE,28,0.0,5.0,69,0.00,,,0.00,meteohub,2013-01-12 22:49:00,
2013-01-12 14:54:00,36.0,26.4,30.40,East,83,1.0,5.0,68,0.00,,,0.00,meteohub,2013-01-12 22:54:00,
2013-01-12 14:59:00,35.4,26.2,30.41,East,83,0.0,4.0,69,0.00,,,0.00,meteohub,2013-01-12 22:59:00,
2013-01-12 15:04:00,34.9,26.4,30.41,East,83,0.0,2.0,71,0.00,,,0.00,meteohub,2013-01-12 23:04:00,
2013-01-12 15:09:00,34.7,25.9,30.41,East,83,0.0,2.0,70,0.00,,,0.00,meteohub,2013-01-12 23:09:00,
2013-01-12 15:14:00,35.1,25.9,30.41,East,83,0.0,1.0,69,0.00,,,0.00,meteohub,2013-01-12 23:14:00,
2013-01-12 15:19:00,35.2,26.1,30.41,East,83,0.0,1.0,69,0.00,,,0.00,meteohub,2013-01-12 23:19:00,
2013-01-12 15:24:00,35.2,26.4,30.41,East,83,0.0,1.0,70,0.00,,,0.00,meteohub,2013-01-12 23:24:00,
2013-01-12 15:29:00,35.4,25.9,30.41,East,83,0.0,2.0,68,0.00,,,0.00,meteohub,2013-01-12 23:29:00,
2013-01-12 15:34:00,35.4,26.2,30.41,ENE,78,0.0,2.0,69,0.00,,,0.00,meteohub,2013-01-12 23:34:00,
2013-01-12 15:39:00,35.4,25.5,30.41,North,0,0.0,2.0,67,0.00,,,0.00,meteohub,2013-01-12 23:39:00,
2013-01-12 15:44:00,35.4,25.2,30.41,North,5,0.0,3.0,66,0.00,,,0.00,meteohub,2013-01-12 23:44:00,
2013-01-12 15:49:00,35.4,25.5,30.41,North,5,0.0,3.0,67,0.00,,,0.00,meteohub,2013-01-12 23:49:00,
2013-01-12 15:54:00,35.1,25.9,30.41,North,5,0.0,3.0,69,0.00,,,0.00,meteohub,2013-01-12 23:54:00,
2013-01-12 15:59:00,34.2,27.1,30.42,North,5,0.0,1.0,75,0.00,,,0.00,meteohub,2013-01-12 23:59:00,
2013-01-12 16:04:00,33.3,27.5,30.41,North,5,0.0,2.0,79,0.00,,,0.00,meteohub,2013-01-13 00:04:00,
2013-01-12 16:09:00,32.7,27.3,30.42,North,5,0.0,2.0,80,0.00,,,0.00,meteohub,2013-01-13 00:09:00,
2013-01-12 16:14:00,32.2,27.0,30.41,North,5,0.0,2.0,81,0.00,,,0.00,meteohub,2013-01-13 00:14:00,
2013-01-12 16:19:00,31.5,27.0,30.41,North,5,0.0,0.0,83,0.00,,,0.00,meteohub,2013-01-13 00:19:00,
2013-01-12 16:24:00,31.1,26.8,30.41,North,5,0.0,0.0,84,0.00,,,0.00,meteohub,2013-01-13 00:24:00,
2013-01-12 16:29:00,30.6,26.2,30.41,North,5,0.0,0.0,84,0.00,,,0.00,meteohub,2013-01-13 00:29:00,
2013-01-12 16:34:00,30.0,26.1,30.41,North,5,0.0,0.0,85,0.00,,,0.00,meteohub,2013-01-13 00:34:00,
2013-01-12 16:39:00,29.8,25.9,30.41,North,5,0.0,0.0,85,0.00,,,0.00,meteohub,2013-01-13 00:39:00,
2013-01-12 16:44:00,29.5,25.5,30.41,North,5,0.0,0.0,85,0.00,,,0.00,meteohub,2013-01-13 00:44:00,
2013-01-12 16:49:00,29.3,25.3,30.41,North,5,0.0,0.0,85,0.00,,,0.00,meteohub,2013-01-13 00:49:00,
2013-01-12 16:55:00,28.9,25.3,30.41,North,5,0.0,0.0,86,0.00,,,0.00,meteohub,2013-01-13 00:55:00,
2013-01-12 17:00:00,28.8,25.2,30.42,North,5,0.0,0.0,86,0.00,,,0.00,meteohub,2013-01-13 01:00:00,
2013-01-12 17:05:00,28.8,25.2,30.42,North,5,0.0,0.0,86,0.00,,,0.00,meteohub,2013-01-13 01:05:00,
2013-01-12 17:10:00,28.6,25.0,30.42,North,5,0.0,0.0,86,0.00,,,0.00,meteohub,2013-01-13 01:10:00,
2013-01-12 17:15:00,28.4,24.8,30.42,North,5,0.0,0.0,86,0.00,,,0.00,meteohub,2013-01-13 01:15:00,
2013-01-12 17:20:00,28.2,24.6,30.42,North,5,0.0,0.0,86,0.00,,,0.00,meteohub,2013-01-13 01:20:00,
2013-01-12 17:25:00,28.0,24.4,30.42,North,5,0.0,0.0,86,0.00,,,0.00,meteohub,2013-01-13 01:25:00,
2013-01-12 17:30:00,28.0,24.4,30.42,North,5,0.0,0.0,86,0.00,,,0.00,meteohub,2013-01-13 01:30:00,
2013-01-12 17:35:00,27.9,24.3,30.42,North,5,0.0,0.0,86,0.00,,,0.00,meteohub,2013-01-13 01:35:00,
2013-01-12 17:40:00,27.7,24.1,30.42,North,5,0.0,0.0,86,0.00,,,0.00,meteohub,2013-01-13 01:40:00,
2013-01-12 17:45:00,27.3,23.7,30.42,North,5,0.0,0.0,86,0.00,,,0.00,meteohub,2013-01-13 01:45:00,
2013-01-12 17:50:00,27.1,23.5,30.42,North,5,0.0,0.0,86,0.00,,,0.00,meteohub,2013-01-13 01:50:00,
2013-01-12 17:55:00,27.0,23.4,30.42,North,5,0.0,0.0,86,0.00,,,0.00,meteohub,2013-01-13 01:55:00,
2013-01-12 18:00:00,26.8,23.2,30.42,North,5,0.0,0.0,86,0.00,,,0.00,meteohub,2013-01-13 02:00:00,
2013-01-12 18:05:00,26.8,22.8,30.41,North,5,0.0,0.0,85,0.00,,,0.00,meteohub,2013-01-13 02:05:00,
2013-01-12 18:10:00,26.6,22.6,30.42,North,5,0.0,0.0,85,0.00,,,0.00,meteohub,2013-01-13 02:10:00,
2013-01-12 18:15:00,26.4,22.5,30.42,North,5,0.0,0.0,85,0.00,,,0.00,meteohub,2013-01-13 02:15:00,
2013-01-12 18:20:00,26.1,22.1,30.42,North,5,0.0,0.0,85,0.00,,,0.00,meteohub,2013-01-13 02:20:00,
2013-01-12 18:25:00,25.9,21.9,30.42,North,5,0.0,0.0,85,0.00,,,0.00,meteohub,2013-01-13 02:25:00,
2013-01-12 18:30:00,25.9,21.9,30.43,North,5,0.0,0.0,85,0.00,,,0.00,meteohub,2013-01-13 02:30:00,
2013-01-12 18:35:00,25.5,21.6,30.43,North,5,0.0,0.0,85,0.00,,,0.00,meteohub,2013-01-13 02:35:00,
2013-01-12 18:40:00,25.5,21.6,30.43,North,5,0.0,0.0,85,0.00,,,0.00,meteohub,2013-01-13 02:40:00,
2013-01-12 18:45:00,25.5,21.4,30.43,North,5,0.0,0.0,84,0.00,,,0.00,meteohub,2013-01-13 02:45:00,
2013-01-12 18:50:00,25.7,21.2,30.43,North,5,0.0,0.0,83,0.00,,,0.00,meteohub,2013-01-13 02:50:00,
2013-01-12 18:55:00,25.7,21.2,30.43,North,5,0.0,0.0,83,0.00,,,0.00,meteohub,2013-01-13 02:55:00,
2013-01-12 19:00:00,25.5,21.0,30.43,North,5,0.0,0.0,83,0.00,,,0.00,meteohub,2013-01-13 03:00:00,
2013-01-12 19:05:00,25.5,21.0,30.43,North,5,0.0,0.0,83,0.00,,,0.00,meteohub,2013-01-13 03:05:00,
2013-01-12 19:10:00,25.3,20.8,30.43,North,5,0.0,0.0,83,0.00,,,0.00,meteohub,2013-01-13 03:10:00,
2013-01-12 19:15:00,25.2,20.7,30.44,North,5,0.0,0.0,83,0.00,,,0.00,meteohub,2013-01-13 03:15:00,
2013-01-12 19:20:00,25.2,20.7,30.44,North,5,0.0,0.0,83,0.00,,,0.00,meteohub,2013-01-13 03:20:00,
2013-01-12 19:25:00,25.2,20.7,30.44,North,5,0.0,0.0,83,0.00,,,0.00,meteohub,2013-01-13 03:25:00,
2013-01-12 19:30:00,25.2,20.5,30.43,North,5,0.0,0.0,82,0.00,,,0.00,meteohub,2013-01-13 03:30:00,
2013-01-12 19:35:00,25.0,20.3,30.43,North,5,0.0,0.0,82,0.00,,,0.00,meteohub,2013-01-13 03:35:00,
2013-01-12 19:40:00,25.0,20.3,30.43,North,5,0.0,0.0,82,0.00,,,0.00,meteohub,2013-01-13 03:40:00,
2013-01-12 19:45:00,24.6,20.1,30.43,North,5,0.0,0.0,83,0.00,,,0.00,meteohub,2013-01-13 03:45:00,
2013-01-12 19:50:00,24.4,19.9,30.43,North,5,0.0,0.0,83,0.00,,,0.00,meteohub,2013-01-13 03:50:00,
2013-01-12 19:55:00,24.3,19.8,30.43,North,5,0.0,0.0,83,0.00,,,0.00,meteohub,2013-01-13 03:55:00,
2013-01-12 20:00:00,23.9,19.6,30.43,North,5,0.0,0.0,83,0.00,,,0.00,meteohub,2013-01-13 04:00:00,
2013-01-12 20:05:00,23.9,19.6,30.43,North,5,0.0,0.0,83,0.00,,,0.00,meteohub,2013-01-13 04:05:00,
2013-01-12 20:10:00,23.9,19.6,30.43,North,5,0.0,0.0,83,0.00,,,0.00,meteohub,2013-01-13 04:10:00,
2013-01-12 20:15:00,23.7,19.4,30.43,North,5,0.0,0.0,83,0.00,,,0.00,meteohub,2013-01-13 04:15:00,
2013-01-12 20:20:00,23.5,19.2,30.43,North,5,0.0,0.0,83,0.00,,,0.00,meteohub,2013-01-13 04:20:00,
2013-01-12 20:25:00,23.5,19.2,30.43,North,5,0.0,0.0,83,0.00,,,0.00,meteohub,2013-01-13 04:25:00,
2013-01-12 20:30:00,23.4,19.0,30.43,North,5,0.0,0.0,83,0.00,,,0.00,meteohub,2013-01-13 04:30:00,
2013-01-12 20:35:00,23.0,18.7,30.43,North,5,0.0,0.0,83,0.00,,,0.00,meteohub,2013-01-13 04:35:00,
2013-01-12 20:41:00,22.8,18.7,30.43,North,5,0.0,0.0,84,0.00,,,0.00,meteohub,2013-01-13 04:41:00,
2013-01-12 20:46:00,22.6,18.5,30.43,North,5,0.0,0.0,84,0.00,,,0.00,meteohub,2013-01-13 04:46:00,
2013-01-12 20:51:00,22.6,18.3,30.43,North,5,0.0,0.0,83,0.00,,,0.00,meteohub,2013-01-13 04:51:00,
2013-01-12 20:56:00,22.3,18.1,30.44,North,5,0.0,0.0,84,0.00,,,0.00,meteohub,2013-01-13 04:56:00,
2013-01-12 21:00:00,22.1,18.0,30.44,North,5,0.0,0.0,84,0.00,,,0.00,meteohub,2013-01-13 05:00:00,
2013-01-12 21:03:00,22.1,18.0,30.44,North,5,0.0,0.0,84,0.00,,,0.00,meteohub,2013-01-13 05:03:00,
2013-01-12 21:12:00,22.1,17.8,30.44,North,5,0.0,0.0,83,0.00,,,0.00,meteohub,2013-01-13 05:12:00,
2013-01-12 21:15:00,21.9,17.6,30.44,North,5,0.0,0.0,83,0.00,,,0.00,meteohub,2013-01-13 05:15:00,
2013-01-12 21:16:00,21.9,17.6,30.44,North,5,0.0,0.0,83,0.00,,,0.00,meteohub,2013-01-13 05:16:00,
2013-01-12 21:21:00,21.9,17.6,30.44,North,5,0.0,0.0,83,0.00,,,0.00,meteohub,2013-01-13 05:21:00,
2013-01-12 21:26:00,21.7,17.4,30.45,North,5,0.0,0.0,83,0.00,,,0.00,meteohub,2013-01-13 05:26:00,
2013-01-12 21:31:00,21.7,17.4,30.44,North,5,0.0,0.0,83,0.00,,,0.00,meteohub,2013-01-13 05:31:00,
2013-01-12 21:36:00,21.6,17.2,30.44,North,5,0.0,0.0,83,0.00,,,0.00,meteohub,2013-01-13 05:36:00,
2013-01-12 21:41:00,21.6,17.2,30.44,North,5,0.0,0.0,83,0.00,,,0.00,meteohub,2013-01-13 05:41:00,
2013-01-12 21:46:00,21.4,17.1,30.43,North,5,0.0,0.0,83,0.00,,,0.00,meteohub,2013-01-13 05:46:00,
2013-01-12 21:51:00,21.2,16.9,30.44,North,5,0.0,0.0,83,0.00,,,0.00,meteohub,2013-01-13 05:51:00,
2013-01-12 21:56:00,21.0,16.7,30.44,North,5,0.0,0.0,83,0.00,,,0.00,meteohub,2013-01-13 05:56:00,
2013-01-12 22:01:00,21.0,16.7,30.44,North,5,0.0,0.0,83,0.00,,,0.00,meteohub,2013-01-13 06:01:00,
2013-01-12 22:06:00,21.4,17.1,30.45,North,5,0.0,0.0,83,0.00,,,0.00,meteohub,2013-01-13 06:06:00,
2013-01-12 22:11:00,21.2,16.9,30.45,North,5,0.0,0.0,83,0.00,,,0.00,meteohub,2013-01-13 06:11:00,
2013-01-12 22:16:00,21.0,16.7,30.44,North,5,0.0,0.0,83,0.00,,,0.00,meteohub,2013-01-13 06:16:00,
2013-01-12 22:21:00,21.2,16.9,30.45,North,5,0.0,0.0,83,0.00,,,0.00,meteohub,2013-01-13 06:21:00,
2013-01-12 22:26:00,21.2,16.9,30.45,North,5,0.0,0.0,83,0.00,,,0.00,meteohub,2013-01-13 06:26:00,
2013-01-12 22:31:00,21.0,16.7,30.45,North,5,0.0,0.0,83,0.00,,,0.00,meteohub,2013-01-13 06:31:00,
2013-01-12 22:36:00,21.0,16.7,30.45,North,5,0.0,0.0,83,0.00,,,0.00,meteohub,2013-01-13 06:36:00,
2013-01-12 22:41:00,20.8,16.5,30.45,North,5,0.0,0.0,83,0.00,,,0.00,meteohub,2013-01-13 06:41:00,
2013-01-12 22:46:00,20.7,16.3,30.45,North,5,0.0,0.0,83,0.00,,,0.00,meteohub,2013-01-13 06:46:00,
2013-01-12 22:51:00,20.7,16.5,30.45,North,5,0.0,0.0,84,0.00,,,0.00,meteohub,2013-01-13 06:51:00,
2013-01-12 22:56:00,20.5,16.3,30.45,North,5,0.0,0.0,84,0.00,,,0.00,meteohub,2013-01-13 06:56:00,
2013-01-12 23:01:00,20.5,16.2,30.46,North,5,0.0,0.0,83,0.00,,,0.00,meteohub,2013-01-13 07:01:00,
2013-01-12 23:06:00,20.7,16.3,30.46,North,5,0.0,0.0,83,0.00,,,0.00,meteohub,2013-01-13 07:06:00,
2013-01-12 23:11:00,20.7,16.3,30.46,North,5,0.0,0.0,83,0.00,,,0.00,meteohub,2013-01-13 07:11:00,
2013-01-12 23:16:00,21.0,16.3,30.47,North,5,0.0,0.0,82,0.00,,,0.00,meteohub,2013-01-13 07:16:00,
2013-01-12 23:21:00,21.4,16.7,30.46,North,5,0.0,0.0,82,0.00,,,0.00,meteohub,2013-01-13 07:21:00,
2013-01-12 23:27:00,21.7,16.9,30.46,North,5,0.0,0.0,81,0.00,,,0.00,meteohub,2013-01-13 07:27:00,
2013-01-12 23:32:00,22.1,17.2,30.46,North,5,0.0,0.0,81,0.00,,,0.00,meteohub,2013-01-13 07:32:00,
2013-01-12 23:37:00,22.5,17.2,30.47,North,5,0.0,0.0,80,0.00,,,0.00,meteohub,2013-01-13 07:37:00,
2013-01-12 23:42:00,22.5,17.2,30.47,North,5,0.0,0.0,80,0.00,,,0.00,meteohub,2013-01-13 07:42:00,
2013-01-12 23:47:00,22.6,17.4,30.47,North,5,0.0,0.0,80,0.00,,,0.00,meteohub,2013-01-13 07:47:00,
2013-01-12 23:52:00,23.2,18.0,30.47,North,5,0.0,0.0,80,0.00,,,0.00,meteohub,2013-01-13 07:52:00,
2013-01-12 23:57:00,23.4,18.1,30.47,North,5,0.0,0.0,80,0.00,,,0.00,meteohub,2013-01-13 07:57:00,